Location: ??????????
(48.4699°N, 37.9573°E)
Time: 02:51:45
(UTC+00:00)

CZ-2C R/B - Pass Details

Date: 20 January 2021
Orbit: 704 x 908 km, 98.1° (Epoch: 24 February)

Event Time Altitude Azimuth Distance (km) Brightness Sun altitude
Rises 14:46:48 0° 136° (SE) 3,290 6.1 -6.6°
Reaches altitude 10° 14:49:14 10° 128° (SE) 2,396 5.3 -6.9°
Maximum altitude 14:54:01 35° 64° (ENE) 1,332 3.8 -7.7°
Drops below altitude 10° 14:59:03 10° 1° (N) 2,526 5.5 -8.4°
Sets 15:01:40 0° 353° (N) 3,493 6.3 -8.9°
